Regional Weather Roundup
Issued by NWS

Home | Current Version | Previous Version | Text Only | Print | Product List | Glossary Off
Versions: 1 2 3 4 5 6 7 8 9 10 11 12 13 14 15 16 17 18 19 20 21 22 23 24 25 26 27 28 29 30 31 32 33 34 35 36 37 38 39 40 41 42 43 44 45 46 47 48

000
ASUS43 KDMX 282207
RWRIA

WEATHER ROUNDUP FOR IOWA
NATIONAL WEATHER SERVICE DES MOINES IA
500 PM CDT THU MAY 28 2015

NOTE: "FAIR" INDICATES FEW OR NO CLOUDS BELOW 12,000 FEET WITH NO
SIGNIFICANT WEATHER AND/OR OBSTRUCTIONS TO VISIBILITY.

* - THESE STATIONS ARE NOT NWS STATIONS...THUS NOT UNDER NWS
QUALITY CONTROL.  THEY ALSO DO NOT REPORT WEATHER SUCH
AS PRECIPITATION OR FOG.

IAZ001>003-012>014-020>022-031>034-043>046-282300-
   NORTHWEST IOWA

CITY           SKY/WX    TMP DP  RH WIND       PRES   REMARKS
CARROLL *      CLOUDY    68  64  88 S17G25    30.01F
CHEROKEE *     CLOUDY    72  57  60 S20       29.98S
DENISON *      PTSUNNY   66  66 100 S12G21    29.98F
LE MARS *      SUNNY     72  59  64 SW13      29.97S
ORANGE CITY *  SUNNY     72  57  60 S15       29.95F
SHELDON *      SUNNY     77  59  53 S21G28    29.94F
SIOUX CITY     CLOUDY    70  60  70 S13       29.95F
SPENCER        CLOUDY    77  60  55 S24G31    29.97F
STORM LAKE *   SUNNY     70  61  73 SE17      30.01S
$$

IAZ055>058-069>071-079>083-090>094-282300-
   SOUTHWEST IOWA

CITY           SKY/WX    TMP DP  RH WIND       PRES   REMARKS
ATLANTIC *     PTSUNNY   70  64  83 S9        30.00F
AUDUBON *      RAIN      66  63  88 S7        30.03F
CLARINDA *     CLOUDY    72  66  83 S8        30.01F
COUNCIL BLFS * PTSUNNY   70  68  94 S13       29.98F
CRESTON *      CLOUDY    72  64  78 S10       30.03F
HARLAN  *      CLOUDY    68  68 100 S10       30.03F
LAMONI         CLOUDY    75  65  70 S7        30.03F
RED OAK *      PTSUNNY   72  66  83 S10G17    29.99F
SHENANDOAH *   PTSUNNY   72  64  78 S13       29.99F
$$

IAZ047>049-059>061-072>074-084-282300-
   CENTRAL IOWA

CITY           SKY/WX    TMP DP  RH WIND       PRES   REMARKS
AMES           LGT RAIN  73  60  63 S12       30.03F
ANKENY *       MOSUNNY   73  64  73 S14       30.03F
CHARITON *     MOSUNNY   73  66  78 E8        30.04F
DES MOINES     CLOUDY    74  63  68 S14       30.03F
GRINNELL*      LGT RAIN  75  59  57 S9        30.05F
KNOXVILLE *    PTSUNNY   70  64  83 CALM      30.04S
MARSHALLTOWN   PTSUNNY   76  59  55 S14       30.03F
PELLA *        LGT RAIN  73  66  78 S3        30.06S
PERRY *        PTSUNNY   72  63  73 S17       30.02F
$$

IAZ004>006-015-016-023>025-035-036-282300-
   NORTH CENTRAL IOWA

CITY           SKY/WX    TMP DP  RH WIND       PRES   REMARKS
ALGONA *       PTSUNNY   79 -31   1 S24       30.00S
CLARION *      PTSUNNY   82  50  32 S22       30.00F HX  81
ESTHERVILLE    PTSUNNY   76  58  53 S28G35    29.98F
FORT DODGE *   CLOUDY    73  61  64 S18       30.02F
MASON CITY     MOSUNNY   80  51  36 S16G28    30.02F HX  80
FOREST CITY *    N/A     77  48  36 S17G24    30.00F
IOWA FALLS *     N/A     77  54  44 S16       30.04S
$$

IAZ007>011-017>019-026>030-037>042-050>054-066-282300-
   NORTHEAST IOWA

CITY           SKY/WX    TMP DP  RH WIND       PRES   REMARKS
CEDAR RAPIDS   MOSUNNY   80  51  36 SE10      30.04F HX  80
CHARLES CITY * SUNNY     81  50  34 S18G25    30.03F HX  80
CLINTON *      MOSUNNY   82  52  34 S15G22    30.10F HX  81
DECORAH *      MOSUNNY   79  54  41 S12       30.05F
DUBUQUE        MOSUNNY   79  54  41 SE14G21   30.08F
MONTICELLO *   SUNNY     82  54  36 S15G22    30.06F HX  81
OELWEIN *      SUNNY     81  52  36 S17G24    30.06F HX  80
WATERLOO       PTSUNNY   80  53  39 S14       30.02F HX  80
$$

IAZ064-065-067-068-078-282300-
   EAST CENTRAL IOWA

CITY           SKY/WX    TMP DP  RH WIND       PRES   REMARKS
DAVENPORT      MOSUNNY   83  51  33 S13       30.07F HX  81
IOWA CITY      MOSUNNY   79  54  41 SE14      30.05F
MT. PLEASANT * MOSUNNY   79  57  47 SE8       30.05S HX  80
MUSCATINE *    SUNNY     82  50  32 S14G22    30.04F HX  81
QUAD CITIES    SUNNY     82  50  32 S10       30.05F HX  81
$$

IAZ062-063-075>077-085>089-095>099-282300-
   SOUTHEAST IOWA

CITY           SKY/WX    TMP DP  RH WIND       PRES   REMARKS
BURLINGTON     MOSUNNY   81  58  45 SE13      30.05F HX  81
FAIRFIELD *    SUNNY     79  57  47 SE10G18   30.05R HX  80
FORT MADISON * SUNNY     81  61  50 SE7       30.06S HX  81
KEOKUK *       MOSUNNY   79  63  57 SE9G15    30.05R HX  80
OSKALOOSA *    LGT RAIN  75  63  64 S9        30.05S
CENTERVILLE *    N/A     70  70 100 E3        30.07S
OTTUMWA        RAIN      74  62  66 SE7       30.02F
WASHINGTON *   SUNNY     82  52  34 S14       30.06S HX  81
$$

ABBREVIATIONS USED IN REMARKS
   TC - TEMPERATURES IN CELSIUS
  WCI - WIND CHILL INDEX
   HX - HEAT INDEX
  VSB - VISIBILITY
$$



USA.gov is the U.S. government's official web portal to all federal, state and local government web resources and services.